Estación de San Rafael
Ultimos registro cada 15 minutos 96
| N° | Estación | Fecha / Hora | Temperatura | Humedad | Lluvia | Velocidad | Dirección | Radiación | Presion |
| 96 | San Rafael | 30-08-2026 23:45 | 8,5 | 96,9 | 0 | 0 | 240 | 0,6 | 1002,2 |
| 95 | San Rafael | 30-08-2026 23:30 | 8,5 | 96,5 | 0 | 0 | 240 | 0,6 | 1002,2 |
| 94 | San Rafael | 30-08-2026 23:15 | 9 | 96,2 | 0 | 0 | 240 | 0,6 | 1002 |
| 93 | San Rafael | 30-08-2026 23:00 | 9,2 | 95,9 | 0 | 0 | 240 | 0,6 | 1001,8 |
| 92 | San Rafael | 30-08-2026 22:45 | 9,4 | 95,4 | 0 | 0 | 240 | 0,6 | 1001,9 |
| 91 | San Rafael | 30-08-2026 22:30 | 9,9 | 94,5 | 0 | 0 | 240 | 0,6 | 1001,7 |
| 90 | San Rafael | 30-08-2026 22:15 | 9,9 | 93,7 | 0 | 0 | 240 | 0,6 | 1001,7 |
| 89 | San Rafael | 30-08-2026 22:00 | 9,9 | 92,3 | 0 | 0 | 240 | 0,6 | 1001,6 |
| 88 | San Rafael | 30-08-2026 21:45 | 10,3 | 91,7 | 0 | 0 | 240 | 0,6 | 1001,4 |
| 87 | San Rafael | 30-08-2026 21:30 | 10,8 | 91,2 | 0 | 0 | 240 | 0,6 | 1001,3 |
| 86 | San Rafael | 30-08-2026 21:15 | 11 | 90,5 | 0 | 0 | 240 | 0,6 | 1001,2 |
| 85 | San Rafael | 30-08-2026 21:00 | 11,2 | 92 | 0 | 0 | 240 | 0,6 | 1001 |
| 84 | San Rafael | 30-08-2026 20:45 | 11,3 | 90 | 0 | 0 | 240 | 0,6 | 1000,9 |
| 83 | San Rafael | 30-08-2026 20:30 | 11,9 | 88,8 | 0 | 0 | 240 | 0,6 | 1001 |
| 82 | San Rafael | 30-08-2026 20:15 | 12,3 | 85,4 | 0 | 0 | 240 | 0,6 | 1001 |
| 81 | San Rafael | 30-08-2026 20:00 | 12,4 | 85,7 | 0 | 0 | 240 | 0,6 | 1000,8 |
| 80 | San Rafael | 30-08-2026 19:45 | 12,6 | 83,6 | 0 | 0 | 240 | 0,6 | 1000,4 |
| 79 | San Rafael | 30-08-2026 19:30 | 12,7 | 85,3 | 0 | 0 | 240 | 0,6 | 1000,3 |
| 78 | San Rafael | 30-08-2026 19:15 | 12,8 | 82,8 | 0 | 0 | 240 | 0,6 | 1000 |
| 77 | San Rafael | 30-08-2026 19:00 | 13,5 | 80,1 | 0 | 0 | 240 | 0,6 | 999,8 |
| 76 | San Rafael | 30-08-2026 18:45 | 13,7 | 83,9 | 0 | 0 | 240 | 0,6 | 999,6 |
| 75 | San Rafael | 30-08-2026 18:30 | 14,6 | 81,7 | 0 | 0 | 248 | 0,6 | 999,2 |
| 74 | San Rafael | 30-08-2026 18:15 | 14,6 | 81,2 | 0 | 0 | 271 | 4,4 | 998,9 |
| 73 | San Rafael | 30-08-2026 18:00 | 15,2 | 77,1 | 0 | 0 | 271 | 14,4 | 998,8 |
| 72 | San Rafael | 30-08-2026 17:45 | 15,4 | 71,1 | 0 | 0 | 271 | 23,1 | 998,7 |
| 71 | San Rafael | 30-08-2026 17:30 | 15,9 | 67,7 | 0 | 0 | 271 | 38,1 | 998,4 |
| 70 | San Rafael | 30-08-2026 17:15 | 16,3 | 63,8 | 0 | 0 | 271 | 50,6 | 998,3 |
| 69 | San Rafael | 30-08-2026 17:00 | 16,7 | 62,1 | 0 | 0 | 271 | 71,9 | 998,2 |
| 68 | San Rafael | 30-08-2026 16:45 | 17 | 62,1 | 0 | 0 | 272 | 100,6 | 998 |
| 67 | San Rafael | 30-08-2026 16:30 | 17,1 | 59,6 | 0 | 0 | 271 | 121,9 | 998 |
| 66 | San Rafael | 30-08-2026 16:15 | 17,3 | 57,3 | 0 | 0 | 281 | 119,4 | 998,1 |
| 65 | San Rafael | 30-08-2026 16:00 | 17,6 | 56,7 | 0 | 1 | 268 | 181,9 | 998,1 |
| 64 | San Rafael | 30-08-2026 15:45 | 17,9 | 61,7 | 0 | 0,5 | 267 | 216,9 | 997,9 |
| 63 | San Rafael | 30-08-2026 15:30 | 18,3 | 57,6 | 0 | 1 | 296 | 269,4 | 997,8 |
| 62 | San Rafael | 30-08-2026 15:15 | 18,2 | 61 | 0 | 1 | 274 | 269,4 | 997,7 |
| 61 | San Rafael | 30-08-2026 15:00 | 18,3 | 62,2 | 0 | 1 | 275 | 213,1 | 997,8 |
| 60 | San Rafael | 30-08-2026 14:45 | 18,4 | 64,8 | 0 | 0 | 320 | 301,9 | 997,6 |
| 59 | San Rafael | 30-08-2026 14:30 | 18,3 | 66,7 | 0 | 0,5 | 291 | 274,4 | 997,6 |
| 58 | San Rafael | 30-08-2026 14:15 | 18,7 | 67,1 | 0 | 0,5 | 281 | 373,1 | 997,5 |
| 57 | San Rafael | 30-08-2026 14:00 | 18 | 66,1 | 0 | 0,5 | 277 | 346,9 | 997,7 |
| 56 | San Rafael | 30-08-2026 13:45 | 18,9 | 65,6 | 0 | 0,5 | 286 | 601,9 | 997,4 |
| 55 | San Rafael | 30-08-2026 13:30 | 17,8 | 67 | 0 | 0,5 | 289 | 388,1 | 997,6 |
| 54 | San Rafael | 30-08-2026 13:15 | 17,7 | 70,1 | 0 | 0,5 | 271 | 419,4 | 997,8 |
| 53 | San Rafael | 30-08-2026 13:00 | 17,1 | 71,3 | 0 | 0 | 268 | 353,1 | 998,1 |
| 52 | San Rafael | 30-08-2026 12:45 | 16,8 | 71 | 0 | 0 | 1 | 503,1 | 998,1 |
| 51 | San Rafael | 30-08-2026 12:30 | 18,2 | 71 | 0 | 0 | 62 | 429,4 | 998,1 |
| 50 | San Rafael | 30-08-2026 12:15 | 16,2 | 73,3 | 0 | 0 | 62 | 313,1 | 998,3 |
| 49 | San Rafael | 30-08-2026 12:00 | 16,9 | 76,1 | 0 | 0 | 70 | 415,6 | 998,2 |
| 48 | San Rafael | 30-08-2026 11:45 | 16,7 | 73,3 | 0 | 0 | 55 | 346,9 | 998,4 |
| 47 | San Rafael | 30-08-2026 11:30 | 16 | 75,1 | 0 | 0 | 37 | 293,1 | 998,5 |
| 46 | San Rafael | 30-08-2026 11:15 | 17 | 75,9 | 0 | 0 | 35 | 193,1 | 998,6 |
| 45 | San Rafael | 30-08-2026 11:00 | 15,6 | 79,1 | 0 | 0 | 6 | 130,6 | 998,7 |
| 44 | San Rafael | 30-08-2026 10:45 | 14,5 | 82,3 | 0 | 0 | 24 | 119,4 | 998,6 |
| 43 | San Rafael | 30-08-2026 10:30 | 15,4 | 80,6 | 0 | 0 | 13 | 139,4 | 998,7 |
| 42 | San Rafael | 30-08-2026 10:15 | 14,6 | 84,9 | 0 | 0 | 13 | 196,9 | 998,8 |
| 41 | San Rafael | 30-08-2026 10:00 | 12,3 | 88,2 | 0 | 0,5 | 20 | 239,4 | 998,9 |
| 40 | San Rafael | 30-08-2026 09:45 | 12,2 | 90,2 | 0 | 0,5 | 358 | 110,6 | 998,9 |
| 39 | San Rafael | 30-08-2026 09:30 | 10,7 | 95 | 0 | 0 | 331 | 159,4 | 998,7 |
| 38 | San Rafael | 30-08-2026 09:15 | 8,7 | 97,4 | 0 | 0 | 331 | 159,4 | 998,7 |
| 37 | San Rafael | 30-08-2026 09:00 | 8,6 | 98 | 0 | 0,5 | 326 | 90,6 | 998,6 |
| 36 | San Rafael | 30-08-2026 08:45 | 8,5 | 98,4 | 0 | 0 | 292 | 68,1 | 998,5 |
| 35 | San Rafael | 30-08-2026 08:30 | 8,6 | 99,2 | 0 | 0 | 184 | 63,1 | 998,2 |
| 34 | San Rafael | 30-08-2026 08:15 | 7,6 | 99,8 | 0 | 0 | 183 | 50,6 | 997,8 |
| 33 | San Rafael | 30-08-2026 08:00 | 6,3 | 100 | 0 | 0 | 183 | 173,1 | 997,7 |
| 32 | San Rafael | 30-08-2026 07:45 | 4,9 | 100 | 0 | 0 | 183 | 119,4 | 997,6 |
| 31 | San Rafael | 30-08-2026 07:30 | 3,8 | 100 | 0 | 0 | 183 | 61,9 | 997,4 |
| 30 | San Rafael | 30-08-2026 07:15 | 3 | 100 | 0 | 0 | 183 | 5,6 | 997,4 |
| 29 | San Rafael | 30-08-2026 07:00 | 2,9 | 100 | 0 | 0 | 183 | 0,6 | 997,1 |
| 28 | San Rafael | 30-08-2026 06:45 | 2,9 | 100 | 0 | 0 | 183 | 0,6 | 996,8 |
| 27 | San Rafael | 30-08-2026 06:30 | 2,9 | 100 | 0 | 0 | 183 | 0,6 | 996,9 |
| 26 | San Rafael | 30-08-2026 06:15 | 3,6 | 100 | 0 | 0 | 183 | 0,6 | 996,6 |
| 25 | San Rafael | 30-08-2026 06:00 | 3,4 | 100 | 0 | 0 | 183 | 0,6 | 996,5 |
| 24 | San Rafael | 30-08-2026 05:45 | 3,5 | 100 | 0 | 0 | 183 | 0,6 | 996,4 |
| 23 | San Rafael | 30-08-2026 05:30 | 3,5 | 100 | 0 | 0 | 183 | 0,6 | 996,2 |
| 22 | San Rafael | 30-08-2026 05:15 | 3,5 | 99,9 | 0 | 0 | 183 | 0,6 | 996,1 |
| 21 | San Rafael | 30-08-2026 05:00 | 3,9 | 99,8 | 0 | 0 | 183 | 0,6 | 996,2 |
| 20 | San Rafael | 30-08-2026 04:45 | 3,8 | 99,8 | 0 | 0 | 183 | 0,6 | 996,2 |
| 19 | San Rafael | 30-08-2026 04:30 | 4,1 | 99,8 | 0 | 0 | 183 | 0,6 | 996,2 |
| 18 | San Rafael | 30-08-2026 04:15 | 4,5 | 99,6 | 0 | 0 | 183 | 0,6 | 996,2 |
| 17 | San Rafael | 30-08-2026 04:00 | 4,7 | 99,6 | 0 | 0 | 183 | 0,6 | 996,1 |
| 16 | San Rafael | 30-08-2026 03:45 | 5,1 | 99,6 | 0 | 0 | 183 | 0,6 | 996,3 |
| 15 | San Rafael | 30-08-2026 03:30 | 5,4 | 99,6 | 0 | 0 | 183 | 0,6 | 996,7 |
| 14 | San Rafael | 30-08-2026 03:15 | 5,6 | 99,8 | 0 | 0 | 183 | 0,6 | 996,8 |
| 13 | San Rafael | 30-08-2026 03:00 | 5,3 | 99,3 | 0 | 0 | 183 | 0,6 | 996,8 |
| 12 | San Rafael | 30-08-2026 02:45 | 5,5 | 99,4 | 0 | 0 | 183 | 0,6 | 997,1 |
| 11 | San Rafael | 30-08-2026 02:30 | 6 | 99,5 | 0 | 0 | 183 | 0,6 | 997,1 |
| 10 | San Rafael | 30-08-2026 02:15 | 5,3 | 99,1 | 0 | 0 | 183 | 0,6 | 997,1 |
| 9 | San Rafael | 30-08-2026 02:00 | 5,3 | 99 | 0 | 0 | 183 | 0,6 | 997,4 |
| 8 | San Rafael | 30-08-2026 01:45 | 5,5 | 99 | 0 | 0 | 183 | 0,6 | 997,5 |
| 7 | San Rafael | 30-08-2026 01:30 | 5,8 | 98,8 | 0 | 0 | 183 | 0,6 | 997,7 |
| 6 | San Rafael | 30-08-2026 01:15 | 5,9 | 98,4 | 0 | 0 | 183 | 0,6 | 997,9 |
| 5 | San Rafael | 30-08-2026 01:00 | 6,5 | 98,4 | 0 | 0 | 183 | 0,6 | 998 |
| 4 | San Rafael | 30-08-2026 00:45 | 6,6 | 98,4 | 0 | 0 | 183 | 0,6 | 998,1 |
| 3 | San Rafael | 30-08-2026 00:30 | 6,5 | 97,8 | 0 | 0 | 183 | 0,6 | 998,2 |
| 2 | San Rafael | 30-08-2026 00:15 | 6,7 | 97,9 | 0 | 0 | 183 | 0,6 | 998,3 |
| 1 | San Rafael | 30-08-2026 00:00 | 6,9 | 97,5 | 0 | 0 | 183 | 0,6 | 998,2 |